Total_Precipitation_Accumulation
0.00 0.00 0.00 0.00 0.00 0.00 0.00 0.00 0.00 0.00 0.00 0.00 0.00 0.00 0.00 0.00 0.00 0.00 0.00 0.00 0.00 0.00 0.00 0.00 0.00 0.00 0.00 0.00 0.00 0.00 0.00 0.00 0.00 0.00 0.00 0.00 0.00 0.00 0.00 0.04 0.16 0.12 0.05 0.03
0.00 0.00 0.00 0.00 0.00 0.00 0.00 0.00 0.00 0.00 0.00 0.00 0.00 0.00 0.00 0.00 0.00 0.00 0.00 0.00 0.00 0.00 0.00 0.00 0.00 0.00 0.00 0.00 0.00 0.00 0.00 0.00 0.00 0.00 0.00 0.00 0.00 0.00 0.00 0.01 0.05 0.13 0.12 0.08
0.00 0.00 0.00 0.00 0.00 0.00 0.00 0.00 0.00 0.00 0.00 0.00 0.00 0.00 0.00 0.00 0.00 0.00 0.00 0.00 0.00 0.00 0.00 0.00 0.00 0.00 0.00 0.00 0.00 0.00 0.00 0.00 0.00 0.00 0.00 0.00 0.00 0.00 0.00 0.00 0.00 0.00 0.02 0.09
0.00 0.00 0.00 0.00 0.00 0.00 0.00 0.00 0.00 0.00 0.00 0.00 0.00 0.00 0.00 0.00 0.00 0.00 0.00 0.00 0.00 0.00 0.00 0.00 0.00 0.00 0.00 0.00 0.00 0.00 0.00 0.00 0.00 0.00 0.00 0.00 0.00 0.00 0.00 0.00 0.00 0.00 0.08 0.19
0.00 0.00 0.00 0.00 0.00 0.00 0.00 0.00 0.00 0.00 0.00 0.00 0.00 0.00 0.00 0.00 0.00 0.00 0.00 0.00 0.00 0.00 0.00 0.00 0.00 0.00 0.00 0.00 0.00 0.00 0.00 0.00 0.00 0.00 0.00 0.00 0.00 0.01 0.05 0.07 0.06 0.03 0.03 0.11
0.00 0.00 0.00 0.00 0.00 0.00 0.00 0.00 0.00 0.00 0.00 0.00 0.00 0.00 0.00 0.00 0.00 0.00 0.00 0.00 0.00 0.00 0.00 0.00 0.00 0.00 0.00 0.00 0.00 0.00 0.00 0.00 0.00 0.00 0.00 0.01 0.00 0.03 0.05 0.06 0.06 0.10 0.08 0.14
0.00 0.00 0.00 0.00 0.00 0.00 0.00 0.00 0.00 0.00 0.00 0.00 0.00 0.00 0.00 0.00 0.00 0.00 0.00 0.00 0.00 0.00 0.00 0.00 0.00 0.00 0.00 0.00 0.00 0.00 0.00 0.00 0.00 0.00 0.01 0.03 0.04 0.02 0.04 0.09 0.06 0.06 0.03 0.05
0.00 0.00 0.00 0.00 0.00 0.00 0.00 0.00 0.00 0.01 0.00 0.00 0.00 0.00 0.00 0.00 0.00 0.00 0.00 0.00 0.00 0.00 0.00 0.00 0.00 0.00 0.00 0.00 0.00 0.00 0.00 0.00 0.00 0.00 0.02 0.03 0.01 0.07 0.09 0.16 0.20 0.14 0.07 0.04
0.01 0.01 0.00 0.00 0.00 0.00 0.00 0.00 0.00 0.03 0.05 0.07 0.01 0.00 0.00 0.00 0.00 0.00 0.00 0.00 0.00 0.00 0.00 0.00 0.00 0.00 0.00 0.00 0.00 0.00 0.00 0.00 0.00 0.00 0.00 0.01 0.02 0.07 0.26 0.43 0.31 0.20 0.08 0.05
0.02 0.03 0.01 0.00 0.00 0.00 0.00 0.00 0.00 0.06 0.25 0.20 0.05 0.00 0.00 0.00 0.00 0.00 0.00 0.00 0.01 0.02 0.01 0.04 0.05 0.05 0.05 0.00 0.00 0.00 0.01 0.00 0.00 0.02 0.05 0.07 0.16 0.20 0.37 0.29 0.26 0.15 0.07 0.02
0.01 0.02 0.01 0.00 0.00 0.00 0.00 0.01 0.04 0.04 0.13 0.25 0.19 0.03 0.00 0.00 0.00 0.00 0.00 0.00 0.00 0.00 0.00 0.02 0.01 0.03 0.04 0.02 0.01 0.02 0.06 0.06 0.09 0.14 0.17 0.23 0.22 0.22 0.18 0.14 0.09 0.06 0.04 0.02
0.00 0.00 0.01 0.00 0.00 0.00 0.00 0.01 0.03 0.11 0.23 0.19 0.29 0.19 0.00 0.00 0.00 0.00 0.00 0.00 0.00 0.00 0.01 0.01 0.02 0.05 0.07 0.06 0.05 0.05 0.06 0.07 0.12 0.16 0.17 0.15 0.11 0.09 0.07 0.05 0.03 0.01 0.01 0.01
0.00 0.02 0.05 0.01 0.00 0.00 0.00 0.00 0.00 0.02 0.09 0.19 0.25 0.14 0.00 0.00 0.00 0.00 0.00 0.00 0.00 0.00 0.02 0.05 0.05 0.05 0.07 0.08 0.08 0.07 0.07 0.07 0.04 0.03 0.04 0.06 0.04 0.02 0.01 0.00 0.00 0.00 0.01 0.01
0.01 0.02 0.05 0.03 0.00 0.00 0.00 0.00 0.00 0.01 0.05 0.09 0.09 0.04 0.00 0.00 0.00 0.00 0.00 0.00 0.00 0.01 0.02 0.02 0.03 0.04 0.09 0.11 0.14 0.16 0.15 0.09 0.12 0.10 0.07 0.04 0.01 0.00 0.00 0.00 0.00 0.00 0.00 0.00
0.05 0.08 0.03 0.01 0.00 0.00 0.00 0.00 0.00 0.00 0.02 0.03 0.01 0.00 0.00 0.00 0.00 0.00 0.00 0.00 0.00 0.02 0.03 0.05 0.05 0.04 0.07 0.08 0.07 0.07 0.15 0.19 0.09 0.07 0.09 0.08 0.05 0.01 0.00 0.00 0.00 0.00 0.00 0.00
0.20 0.23 0.05 0.01 0.00 0.00 0.01 0.00 0.00 0.00 0.00 0.00 0.00 0.00 0.00 0.00 0.00 0.00 0.00 0.00 0.01 0.01 0.01 0.01 0.00 0.01 0.03 0.05 0.06 0.04 0.04 0.05 0.08 0.03 0.02 0.03 0.02 0.02 0.02 0.01 0.01 0.01 0.04 0.07
0.26 0.33 0.30 0.13 0.00 0.03 0.04 0.00 0.00 0.00 0.00 0.00 0.00 0.00 0.00 0.00 0.00 0.00 0.01 0.00 0.00 0.02 0.02 0.01 0.02 0.01 0.01 0.02 0.04 0.04 0.03 0.01 0.01 0.01 0.00 0.00 0.00 0.01 0.01 0.02 0.01 0.00 0.01 0.07
0.17 0.23 0.37 0.27 0.07 0.20 0.06 0.00 0.00 0.00 0.00 0.00 0.00 0.00 0.00 0.00 0.00 0.00 0.01 0.01 0.02 0.03 0.03 0.02 0.03 0.06 0.05 0.03 0.04 0.04 0.03 0.03 0.04 0.06 0.08 0.07 0.02 0.01 0.01 0.00 0.00 0.00 0.01 0.03
0.03 0.07 0.27 0.34 0.24 0.16 0.01 0.00 0.00 0.01 0.01 0.00 0.00 0.00 0.00 0.00 0.00 0.00 0.00 0.03 0.03 0.02 0.05 0.06 0.05 0.04 0.05 0.08 0.12 0.15 0.17 0.17 0.14 0.14 0.13 0.10 0.06 0.03 0.01 0.00 0.00 0.00 0.00 0.00
0.00 0.03 0.14 0.32 0.35 0.22 0.02 0.00 0.01 0.03 0.03 0.00 0.00 0.00 0.00 0.00 0.00 0.00 0.00 0.00 0.07 0.14 0.09 0.04 0.02 0.02 0.03 0.04 0.05 0.05 0.06 0.07 0.06 0.04 0.02 0.01 0.00 0.00 0.00 0.00 0.00 0.00 0.00 0.00
0.05 0.07 0.14 0.19 0.33 0.12 0.00 0.00 0.02 0.09 0.07 0.02 0.02 0.01 0.00 0.01 0.01 0.01 0.01 0.01 0.00 0.06 0.14 0.14 0.11 0.11 0.14 0.14 0.14 0.12 0.07 0.05 0.04 0.03 0.02 0.01 0.01 0.02 0.01 0.00 0.00 0.00 0.00 0.00
0.15 0.31 0.22 0.09 0.11 0.08 0.00 0.00 0.03 0.03 0.02 0.02 0.02 0.01 0.01 0.01 0.03 0.06 0.09 0.08 0.08 0.08 0.09 0.10 0.12 0.15 0.18 0.24 0.25 0.23 0.19 0.14 0.11 0.09 0.07 0.07 0.08 0.06 0.03 0.01 0.00 0.00 0.00 0.00
0.06 0.14 0.23 0.19 0.12 0.02 0.00 0.01 0.02 0.01 0.01 0.05 0.26 0.30 0.12 0.12 0.07 0.10 0.39 0.34 0.19 0.13 0.12 0.14 0.17 0.19 0.20 0.22 0.23 0.21 0.19 0.16 0.17 0.20 0.23 0.18 0.10 0.04 0.01 0.00 0.00 0.00 0.00 0.00
0.08 0.04 0.15 0.21 0.10 0.02 0.00 0.01 0.01 0.05 0.15 0.08 0.04 0.14 0.35 0.29 0.25 0.29 0.29 0.34 0.31 0.36 0.36 0.26 0.24 0.30 0.39 0.49 0.58 0.65 0.69 0.69 0.61 0.47 0.31 0.15 0.06 0.02 0.01 0.00 0.00 0.00 0.01 0.01
0.12 0.10 0.11 0.17 0.08 0.02 0.01 0.02 0.05 0.03 0.02 0.10 0.22 0.26 0.26 0.40 0.26 0.26 0.35 0.19 0.14 0.20 0.31 0.45 0.46 0.48 0.59 0.71 0.78 0.78 0.70 0.52 0.34 0.16 0.07 0.02 0.00 0.00 0.00 0.00 0.01 0.01 0.03 0.04
0.04 0.10 0.14 0.08 0.08 0.09 0.07 0.12 0.15 0.24 0.18 0.06 0.07 0.22 0.51 0.46 0.32 0.16 0.15 0.14 0.14 0.22 0.40 0.51 0.59 0.65 0.72 0.69 0.65 0.54 0.37 0.23 0.12 0.04 0.01 0.00 0.00 0.00 0.00 0.00 0.01 0.02 0.02 0.02